Location: 3 Angels Observatory
(30.5437°N, 88.5068°W)
Time: 15:57:01
(UTC-05:00)

Daily predictions for brighter satellites

Satellite Brightness Start Highest point End
(mag) Time Altitude Azimuth Time Altitude Azimuth Time Altitude Azimuth
Cosmos 2227 Rocket 2.8 19:42:08 10° NNW 19:47:42 61° WSW 19:53:14 10° S
SL-16 R/B 3.2 19:46:41 10° SSE 19:51:08 24° ESE 19:55:34 10° NE
Cosmos 2082 4.2 19:46:16 10° NNW 19:51:49 67° WSW 19:57:23 10° S
FengYun 1-2 T 4.4 19:48:56 10° SSE 19:54:27 58° ENE 20:00:00 10° N
Nadezhda 4 Rocket 4.3 19:50:37 10° N 19:56:41 49° E 20:02:46 10° SSE
GPS 2-04 Rocket1 2.5 19:54:17 10° WNW 19:57:49 78° SSW 20:01:33 10° ESE
Hubble Space Telescope 2.9 19:55:56 10° WSW 19:58:49 18° SSW 20:01:42 10° SSE
Sakura Rocket 4.4 19:57:49 10° SSW 20:00:25 18° SSE 20:03:17 10° ESE
Cosmos 1707 Rocket 4.0 19:57:01 10° SSE 20:01:12 41° E 20:05:22 10° NNE
HJ-1C 3.4 19:59:11 10° SSE 20:02:36 69° ENE 20:06:02 10° N
USA 186 3.3 20:02:40 11° ESE 20:04:01 15° ENE 20:05:42 10° NE
Cosmos 2034 Rocket 4.4 19:59:53 10° SSW 20:06:01 68° W 20:12:10 10° N
Cosmos 1092 Rocket 4.5 20:00:28 10° N 20:06:24 41° E 20:12:18 10° SSE
ALOS 2.4 20:02:48 10° S 20:07:28 80° WSW 20:12:09 10° NNW
Helios 1B rocket 3.4 20:04:08 10° NE 20:07:34 26° E 20:11:00 10° SSE
Resurs 1-3 3.7 20:14:56 10° SSE 20:19:14 59° ENE 20:23:33 10° N
Atlas Centaur 2 3.0 20:17:56 10° SW 20:24:23 52° SSE 20:31:32 12° E
Cosmos 1869 Rocket 3.6 20:20:29 10° N 20:24:55 64° E 20:29:20 10° SSE
Cosmos 1408 4.1 20:24:24 10° NNE 20:27:04 19° ENE 20:27:28 18° E
SL-8 R/B 3.7 20:25:53 10° NW 20:30:44 89° NE 20:33:57 21° SE
Cosmos 2242 Rocket 3.9 20:28:25 10° SSE 20:32:44 45° E 20:37:02 10° NNE
Cosmos 1455 3.1 20:30:27 10° SSW 20:34:08 50° W 20:37:50 10° N
Helios 1A 3.3 20:36:34 23° SE 20:38:52 45° ENE 20:42:56 10° N
Cosmos 2279 Rocket 4.3 20:34:16 10° SSE 20:40:09 45° E 20:46:02 10° NNE
Meteor 2-20 4.4 20:39:55 10° N 20:46:01 69° E 20:51:28 13° SSE
DELTA 2 R/B (1) 3.6 20:40:58 10° WNW 20:46:35 77° NNE 20:49:34 29° ESE
Cosmos 1869 3.4 20:43:11 10° S 20:47:06 73° W 20:51:01 10° N
CZ-3B DEB 1.3 20:44:59 10° NW 20:48:14 37° WSW 20:48:45 32° SSW
Spot 2 Rocket 3.9 20:43:14 10° S 20:48:16 62° WSW 20:53:19 10° NNW
Resurs 01 Rocket 2.6 20:46:03 10° S 20:50:19 47° W 20:54:37 10° NNW
Spot 1 4.5 20:48:46 21° SSE 20:52:11 69° ENE 20:57:17 10° N
OAO 3 Rocket 3.9 20:48:40 10° W 20:53:25 51° N 20:56:38 20° ENE
CZ-4B DEB 3.2 20:54:21 42° NE 20:54:21 42° NE 20:56:53 10° N
YAOGAN 6 4.3 20:56:56 21° NE 20:56:56 21° NE 20:58:55 10° NNE
FALCON 9 R/B 1.6 20:58:38 10° WNW 21:00:47 31° N 21:00:47 31° N
Meteor 1-29 3.4 21:00:35 10° N 21:04:01 62° WNW 21:06:41 16° SSW
Meteor 2-10 Rocket 4.1 21:05:37 38° ESE 21:06:46 42° E 21:12:12 10° NNE
Cosmos 2322 Rocket 2.7 21:01:35 10° SSW 21:07:07 62° WNW 21:12:41 10° NNE
Cosmos 2263 Rocket 3.1 21:03:03 10° N 21:07:53 30° ENE 21:08:25 29° ENE
Envisat 2.9 21:05:47 32° SSE 21:08:11 83° ENE 21:13:17 10° N
Cosmos 1933 3.1 21:11:30 70° ESE 21:11:40 72° E 21:15:41 10° N
Cosmos 220 Rocket 3.9 21:08:25 10° NNW 21:12:52 74° ENE 21:13:27 63° SE
Cosmos 1315 Rocket 4.4 21:10:33 10° NNW 21:14:14 34° W 21:17:07 14° SSW
Cosmos 2360 Rocket 2.2 21:15:49 41° SSE 21:17:29 56° ESE 21:23:00 10° NNE
OTV 4 2.9 21:19:03 10° W 21:20:12 18° WSW 21:20:12 18° WSW
USA 234 3.4 21:22:54 42° ESE 21:24:59 61° NE 21:31:24 10° NNW
Cosmos 2322 3.7 21:25:27 56° E 21:25:27 56° E 21:30:55 10° NNE
Cosmos 1825 2.6 21:23:28 10° NNW 21:27:12 57° W 21:27:15 57° W
CZ-3 Stage 3 4.1 21:07:10 10° WNW 21:28:06 33° SW 21:31:42 22° S
SEDSat Delta rocket 3.6 21:23:41 10° W 21:29:09 87° N 21:30:34 54° ENE
Cosmos 2026 Rocket 4.2 21:24:43 10° NNW 21:30:52 66° W 21:34:22 26° SSW
SL-16 R/B 3.8 21:29:50 10° SW 21:34:57 35° WNW 21:40:07 10° N
ATLAS CENTAUR R/B 4.5 21:34:07 10° WNW 21:37:48 26° SW 21:42:08 17° S
Cosmos 1862 4.0 21:36:59 10° NNW 21:40:18 52° NW 21:40:18 52° NW
ERS-1 Rocket 2.9 21:42:09 78° NNE 21:42:09 78° NNE 21:46:54 10° N
Cosmos 1939 Rocket 4.1 21:44:20 37° WSW 21:44:27 37° W 21:48:13 10° NNW
Lacrosse 4 Rocket 2.1 21:41:39 10° NNW 21:45:08 55° NW 21:45:08 55° NW
Skynet4D Del rocket 4.2 21:39:17 10° W 21:47:22 68° S 21:48:17 63° SE
ATLAS 5 CENTAUR R/B 3.3 21:42:21 10° N 21:47:45 35° NE 21:47:45 35° NE
Cosmos 1733 Rocket 4.0 21:47:11 10° NNW 21:51:22 45° W 21:51:22 45° W
ARGOS 3.9 21:52:58 40° NNE 21:52:58 40° NNE 21:56:46 10° N
Milstar 3 2.7 21:45:42 10° W 21:52:54 62° SSW 21:53:09 62° S
SeaSat 1 3.7 21:57:02 31° NNE 21:57:02 31° NNE 22:00:04 10° N
Meteor 1-26 Rocket 4.3 21:58:32 71° WSW 21:58:47 72° W 22:04:31 10° N
Terra 4.4 22:10:04 11° NNE 22:10:04 11° NNE 22:10:25 10° NNE
USA 229 DEB 3.8 22:01:36 10° SW 22:08:21 72° WNW 22:15:16 10° NNE
USA 229 3.8 22:01:40 10° SW 22:08:27 72° WNW 22:15:21 10° NNE
Atlas Centaur 2 2.8 22:06:28 10° W 22:14:01 85° S 22:14:12 84° SE
Cosmos 2266 Rocket 4.2 22:12:41 10° N 22:18:12 69° NNW 22:18:12 69° NNW
MOS 1-B Rocket 4.4 22:22:54 57° N 22:22:54 57° N 22:27:20 10° NNW
H-2A R/B 3.8 22:33:27 25° N 22:33:27 25° N 22:35:32 10° N
COSMOS 2428 4.4 22:52:08 27° N 22:52:08 27° N 22:54:50 10° N
Cosmos 2263 Rocket 4.0 22:47:00 10° NW 22:50:09 24° WNW 22:50:09 24° WNW
H-2A R/B 3.7 21:31:17 10° W 22:51:40 79° S 22:51:40 79° S
ATLAS 5 CENTAUR R/B 4.5 23:27:01 10° NW 23:29:19 21° WNW 23:29:19 21° WNW
